Overview Statistics Trail Chart Weather Telemetry Raw packets
 

This is the latest recevied weather packets stored in our database for station/object K6GMW. If no packets are shown the sender has not sent any weather packets the latest 10 day(s).

<< 56 57 58 59 60 61 62 >>
Time Temp. Humidity Pressure Rain* Wind** Luminosity Snow
1788249062 25° C 76% 1018 hPa 0 mm - 0 W/m² -
1788248761 25° C 76% 1017.9 hPa 0 mm - 0 W/m² -
1788248456 25° C 76% 1018 hPa 0 mm - 0 W/m² -
1788248154 25° C 76% 1017.8 hPa 0 mm - 0 W/m² -
1788247853 25° C 76% 1017.8 hPa 0 mm - 0 W/m² -
1788247548 25° C 76% 1017.8 hPa 0 mm - 0 W/m² -
1788247244 25.56° C 76% 1017.7 hPa 0 mm - 0 W/m² -
1788246943 25.56° C 75% 1017.8 hPa 0 mm - 0 W/m² -
1788246642 25.56° C 74% 1017.7 hPa 0 mm - 0 W/m² -
1788246337 25.56° C 75% 1017.6 hPa 0 mm - 0 W/m² -
1788246033 25° C 75% 1017.8 hPa 0 mm - 0 W/m² -
1788245727 25° C 76% 1017.5 hPa 0 mm - 0 W/m² -
1788245421 25.56° C 76% 1017.6 hPa 0 mm - 0 W/m² -
1788245118 25.56° C 76% 1017.6 hPa 0 mm - 0 W/m² -
1788244815 25.56° C 74% 1017.7 hPa 0 mm - 0 W/m² -
1788244512 25.56° C 73% 1017.6 hPa 0 mm - 0 W/m² -
1788244223 25.56° C 72% 1017.5 hPa 0 mm - 0 W/m² -
1788243903 26.11° C 72% 1017.5 hPa 0 mm - 0 W/m² -
1788243599 26.11° C 71% 1017.3 hPa 0 mm - 0 W/m² -
1788243300 26.67° C 70% 1017.3 hPa 0 mm - 0 W/m² -
1788242995 26.67° C 70% 1017.3 hPa 0 mm - 0 W/m² -
1788242690 26.67° C 69% 1017.3 hPa 0 mm - 0 W/m² -
1788242393 27.22° C 68% 1017.4 hPa 0 mm - 0 W/m² -
1788242086 27.22° C 67% 1017.3 hPa 0 mm - 0 W/m² -
1788241782 27.22° C 67% 1017.3 hPa 0 mm - 0 W/m² -

* Rain latest hour (hover to see other rain measurements)
** Current wind speed in m/s (hover to see current wind gust speed)